Year,Month,Day,Hour,Minute,Value (Times are PST for temperature in C)
2009,06,18,00,00,14.80
2009,06,18,00,01,14.80
2009,06,18,00,02,14.80
2009,06,18,00,03,14.80
2009,06,18,00,04,14.80
2009,06,18,00,05,14.80
2009,06,18,00,06,14.80
2009,06,18,00,07,14.70
2009,06,18,00,08,14.70
2009,06,18,00,09,14.70
2009,06,18,00,10,14.70
2009,06,18,00,11,14.70
2009,06,18,00,12,14.70
2009,06,18,00,13,14.80
2009,06,18,00,14,14.70
2009,06,18,00,15,14.70
2009,06,18,00,16,14.70
2009,06,18,00,17,14.80
2009,06,18,00,18,14.80
2009,06,18,00,19,14.80
2009,06,18,00,20,14.80
2009,06,18,00,21,14.80
2009,06,18,00,22,14.80
2009,06,18,00,23,14.80
2009,06,18,00,24,14.80
2009,06,18,00,25,14.80
2009,06,18,00,26,14.80
2009,06,18,00,27,14.80
2009,06,18,00,28,14.80
2009,06,18,00,29,14.80
2009,06,18,00,30,14.80
2009,06,18,00,31,14.80
2009,06,18,00,32,14.80
2009,06,18,00,33,14.80
2009,06,18,00,34,14.90
2009,06,18,00,35,14.90
2009,06,18,00,36,14.90
2009,06,18,00,37,15.00
2009,06,18,00,38,15.00
2009,06,18,00,39,15.00
2009,06,18,00,40,15.00
2009,06,18,00,41,15.10
2009,06,18,00,42,15.10
2009,06,18,00,43,15.10
2009,06,18,00,44,15.10
2009,06,18,00,45,15.20
2009,06,18,00,46,15.20
2009,06,18,00,47,15.20
2009,06,18,00,48,15.20
2009,06,18,00,49,15.20
2009,06,18,00,50,15.20
2009,06,18,00,51,15.20
2009,06,18,00,52,15.30
2009,06,18,00,53,15.30
2009,06,18,00,54,15.30
2009,06,18,00,55,15.30
2009,06,18,00,56,15.30
2009,06,18,00,57,15.30
2009,06,18,00,58,15.30
2009,06,18,00,59,15.30
2009,06,18,01,00,15.40
2009,06,18,01,01,15.50
2009,06,18,01,02,15.50
2009,06,18,01,03,15.60
2009,06,18,01,04,15.60
2009,06,18,01,05,15.60
2009,06,18,01,06,15.60
2009,06,18,01,07,15.60
2009,06,18,01,08,15.60
2009,06,18,01,09,15.60
2009,06,18,01,10,15.60
2009,06,18,01,11,15.60
2009,06,18,01,12,15.70
2009,06,18,01,13,15.70
2009,06,18,01,14,15.70
2009,06,18,01,15,15.70
2009,06,18,01,16,15.80
2009,06,18,01,17,15.80
2009,06,18,01,18,15.80
2009,06,18,01,19,15.80
2009,06,18,01,20,15.80
2009,06,18,01,21,15.80
2009,06,18,01,22,15.80
2009,06,18,01,23,15.80
2009,06,18,01,24,15.80
2009,06,18,01,25,15.80
2009,06,18,01,26,15.90
2009,06,18,01,27,15.90
2009,06,18,01,28,15.90
2009,06,18,01,29,15.90
2009,06,18,01,30,15.90
2009,06,18,01,31,16.00
2009,06,18,01,32,16.10
2009,06,18,01,33,16.10
2009,06,18,01,34,16.00
2009,06,18,01,35,16.00
2009,06,18,01,36,16.10
2009,06,18,01,37,16.10
2009,06,18,01,38,16.10
2009,06,18,01,39,16.10
2009,06,18,01,40,16.10
2009,06,18,01,41,16.10
2009,06,18,01,42,16.10
2009,06,18,01,43,16.10
2009,06,18,01,44,16.10
2009,06,18,01,45,16.00
2009,06,18,01,46,15.90
2009,06,18,01,47,15.90
2009,06,18,01,48,15.90
2009,06,18,01,49,15.90
2009,06,18,01,50,15.90
2009,06,18,01,51,15.90
2009,06,18,01,52,15.90
2009,06,18,01,53,15.90
2009,06,18,01,54,15.90
2009,06,18,01,55,15.90
2009,06,18,01,56,15.90
2009,06,18,01,57,15.90
2009,06,18,01,58,15.90
2009,06,18,01,59,15.90
2009,06,18,02,00,15.90
2009,06,18,02,01,15.90
2009,06,18,02,02,15.90
2009,06,18,02,03,15.90
2009,06,18,02,04,15.90
2009,06,18,02,05,15.90
2009,06,18,02,06,15.90
2009,06,18,02,07,15.90
2009,06,18,02,08,15.90
2009,06,18,02,09,15.90
2009,06,18,02,10,15.80
2009,06,18,02,11,15.90
2009,06,18,02,12,15.90
2009,06,18,02,13,15.90
2009,06,18,02,14,15.90
2009,06,18,02,15,15.80
2009,06,18,02,16,15.80
2009,06,18,02,17,15.80
2009,06,18,02,18,15.80
2009,06,18,02,19,15.80
2009,06,18,02,20,15.80
2009,06,18,02,21,15.80
2009,06,18,02,22,15.80
2009,06,18,02,23,15.80
2009,06,18,02,24,15.80
2009,06,18,02,25,15.80
2009,06,18,02,26,15.80
2009,06,18,02,27,15.80
2009,06,18,02,28,15.70
2009,06,18,02,29,15.70
2009,06,18,02,30,15.70
2009,06,18,02,31,15.70
2009,06,18,02,32,15.70
2009,06,18,02,33,15.70
2009,06,18,02,34,15.70
2009,06,18,02,35,15.60
2009,06,18,02,36,15.40
2009,06,18,02,37,15.30
2009,06,18,02,38,15.20
2009,06,18,02,39,15.00
2009,06,18,02,40,14.90
2009,06,18,02,41,14.80
2009,06,18,02,42,14.80
2009,06,18,02,43,14.60
2009,06,18,02,44,14.50
2009,06,18,02,45,14.50
2009,06,18,02,46,14.30
2009,06,18,02,47,14.20
2009,06,18,02,48,14.20
2009,06,18,02,49,14.10
2009,06,18,02,50,14.10
2009,06,18,02,51,14.00
2009,06,18,02,52,13.90
2009,06,18,02,53,13.90
2009,06,18,02,54,13.80
2009,06,18,02,55,13.80
2009,06,18,02,56,13.70
2009,06,18,02,57,13.70
2009,06,18,02,58,13.70
2009,06,18,02,59,13.60
2009,06,18,03,00,13.60
2009,06,18,03,01,13.60
2009,06,18,03,02,13.50
2009,06,18,03,03,13.50
2009,06,18,03,04,13.40
2009,06,18,03,05,13.40
2009,06,18,03,06,13.40
2009,06,18,03,07,13.30
2009,06,18,03,08,13.30
2009,06,18,03,09,13.30
2009,06,18,03,10,13.30
2009,06,18,03,11,13.20
2009,06,18,03,12,13.20
2009,06,18,03,13,13.20
2009,06,18,03,14,13.20
2009,06,18,03,15,13.10
2009,06,18,03,16,13.10
2009,06,18,03,17,13.10
2009,06,18,03,18,13.10
2009,06,18,03,19,13.00
2009,06,18,03,20,13.00
2009,06,18,03,21,12.90
2009,06,18,03,22,12.90
2009,06,18,03,23,12.90
2009,06,18,03,24,12.80
2009,06,18,03,25,12.80
2009,06,18,03,26,12.80
2009,06,18,03,27,12.80
2009,06,18,03,28,12.80
2009,06,18,03,29,12.80
2009,06,18,03,30,12.70
2009,06,18,03,31,12.70
2009,06,18,03,32,12.70
2009,06,18,03,33,12.70
2009,06,18,03,34,12.70
2009,06,18,03,35,12.60
2009,06,18,03,36,12.60
2009,06,18,03,37,12.60
2009,06,18,03,38,12.60
2009,06,18,03,39,12.60
2009,06,18,03,40,12.50
2009,06,18,03,41,12.50
2009,06,18,03,42,12.50
2009,06,18,03,43,12.50
2009,06,18,03,44,12.50
2009,06,18,03,45,12.50
2009,06,18,03,46,12.40
2009,06,18,03,47,12.40
2009,06,18,03,48,12.40
2009,06,18,03,49,12.40
2009,06,18,03,50,12.30
2009,06,18,03,51,12.30
2009,06,18,03,52,12.30
2009,06,18,03,53,12.30
2009,06,18,03,54,12.30
2009,06,18,03,55,12.30
2009,06,18,03,56,12.30
2009,06,18,03,57,12.30
2009,06,18,03,58,12.30
2009,06,18,03,59,12.30
2009,06,18,04,00,12.30
2009,06,18,04,01,12.30
2009,06,18,04,02,12.30
2009,06,18,04,03,12.40
2009,06,18,04,04,12.40
2009,06,18,04,05,12.40
2009,06,18,04,06,12.40
2009,06,18,04,07,12.40
2009,06,18,04,08,12.40
2009,06,18,04,09,12.40
2009,06,18,04,10,12.40
2009,06,18,04,11,12.40
2009,06,18,04,12,12.40
2009,06,18,04,13,12.50
2009,06,18,04,14,12.50
2009,06,18,04,15,12.50
2009,06,18,04,16,12.50
2009,06,18,04,17,12.60
2009,06,18,04,18,12.60
2009,06,18,04,19,12.60
2009,06,18,04,20,12.60
2009,06,18,04,21,12.60
2009,06,18,04,22,12.60
2009,06,18,04,23,12.60
2009,06,18,04,24,12.60
2009,06,18,04,25,12.70
2009,06,18,04,26,12.70
2009,06,18,04,27,12.70
2009,06,18,04,28,12.70
2009,06,18,04,29,12.70
2009,06,18,04,30,12.70
2009,06,18,04,31,12.70
2009,06,18,04,32,12.70
2009,06,18,04,33,12.70
2009,06,18,04,34,12.70
2009,06,18,04,35,12.70
2009,06,18,04,36,12.70
2009,06,18,04,37,12.70
2009,06,18,04,38,12.70
2009,06,18,04,39,12.70
2009,06,18,04,40,12.60
2009,06,18,04,41,12.60
2009,06,18,04,42,12.60
2009,06,18,04,43,12.60
2009,06,18,04,44,12.60
2009,06,18,04,45,12.70
2009,06,18,04,46,12.70
2009,06,18,04,47,12.70
2009,06,18,04,48,12.70
2009,06,18,04,49,12.70
2009,06,18,04,50,12.70
2009,06,18,04,51,12.70
2009,06,18,04,52,12.70
2009,06,18,04,53,12.70
2009,06,18,04,54,12.70
2009,06,18,04,55,12.70
2009,06,18,04,56,12.70
2009,06,18,04,57,12.70
2009,06,18,04,58,12.70
2009,06,18,04,59,12.60
2009,06,18,05,00,12.60
2009,06,18,05,01,12.60
2009,06,18,05,02,12.60
2009,06,18,05,03,12.60
2009,06,18,05,04,12.60
2009,06,18,05,05,12.60
2009,06,18,05,06,12.60
2009,06,18,05,07,12.60
2009,06,18,05,08,12.60
2009,06,18,05,09,12.60
2009,06,18,05,10,12.60
2009,06,18,05,11,12.60
2009,06,18,05,12,12.60
2009,06,18,05,13,12.60
2009,06,18,05,14,12.60
2009,06,18,05,15,12.50
2009,06,18,05,16,12.50
2009,06,18,05,17,12.50
2009,06,18,05,18,12.50
2009,06,18,05,19,12.50
2009,06,18,05,20,12.50
2009,06,18,05,21,12.50
2009,06,18,05,22,12.60
2009,06,18,05,23,12.60
2009,06,18,05,24,12.50
2009,06,18,05,25,12.50
2009,06,18,05,26,12.50
2009,06,18,05,27,12.50
2009,06,18,05,28,12.50
2009,06,18,05,29,12.50
2009,06,18,05,30,12.50
2009,06,18,05,31,12.50
2009,06,18,05,32,12.50
2009,06,18,05,33,12.50
2009,06,18,05,34,12.50
2009,06,18,05,35,12.50
2009,06,18,05,36,12.50
2009,06,18,05,37,12.50
2009,06,18,05,38,12.50
2009,06,18,05,39,12.40
2009,06,18,05,40,12.30
2009,06,18,05,41,12.20
2009,06,18,05,42,12.10
2009,06,18,05,43,12.10
2009,06,18,05,44,12.00
2009,06,18,05,45,11.90
2009,06,18,05,46,11.80
2009,06,18,05,47,11.80
2009,06,18,05,48,11.80
2009,06,18,05,49,11.70
2009,06,18,05,50,11.70
2009,06,18,05,51,11.70
2009,06,18,05,52,11.70
2009,06,18,05,53,11.70
2009,06,18,05,54,11.70
2009,06,18,05,55,11.70
2009,06,18,05,56,11.80
2009,06,18,05,57,11.80
2009,06,18,05,58,11.80
2009,06,18,05,59,11.80
2009,06,18,06,00,11.80
2009,06,18,06,01,11.80
2009,06,18,06,02,11.90
2009,06,18,06,03,11.90
2009,06,18,06,04,11.90
2009,06,18,06,05,11.90
2009,06,18,06,06,11.90
2009,06,18,06,07,11.90
2009,06,18,06,08,11.90
2009,06,18,06,09,11.90
2009,06,18,06,10,11.90
2009,06,18,06,11,11.90
2009,06,18,06,12,11.90
2009,06,18,06,13,11.90
2009,06,18,06,14,12.00
2009,06,18,06,15,12.00
2009,06,18,06,16,12.00
2009,06,18,06,17,12.00
2009,06,18,06,18,12.10
2009,06,18,06,19,12.10
2009,06,18,06,20,12.10
2009,06,18,06,21,12.20
2009,06,18,06,22,12.20
2009,06,18,06,23,12.30
2009,06,18,06,24,12.30
2009,06,18,06,25,12.30
2009,06,18,06,26,12.40
2009,06,18,06,27,12.40
2009,06,18,06,28,12.50
2009,06,18,06,29,12.50
2009,06,18,06,30,12.60
2009,06,18,06,31,12.70
2009,06,18,06,32,12.70
2009,06,18,06,33,12.80
2009,06,18,06,34,12.80
2009,06,18,06,35,12.80
2009,06,18,06,36,12.80
2009,06,18,06,37,12.80
2009,06,18,06,38,12.80
2009,06,18,06,39,12.80
2009,06,18,06,40,12.90
2009,06,18,06,41,12.90
2009,06,18,06,42,12.90
2009,06,18,06,43,12.90
2009,06,18,06,44,12.80
2009,06,18,06,45,12.80
2009,06,18,06,46,12.80
2009,06,18,06,47,12.80
2009,06,18,06,48,12.80
2009,06,18,06,49,12.80
2009,06,18,06,50,12.80
2009,06,18,06,51,12.80
2009,06,18,06,52,12.80
2009,06,18,06,53,12.80
2009,06,18,06,54,12.90
2009,06,18,06,55,12.90
2009,06,18,06,56,13.00
2009,06,18,06,57,13.10
2009,06,18,06,58,13.10
2009,06,18,06,59,13.20
2009,06,18,07,00,13.30
2009,06,18,07,01,13.40
2009,06,18,07,02,13.60
2009,06,18,07,03,13.70
2009,06,18,07,04,13.80
2009,06,18,07,05,13.90
2009,06,18,07,06,14.00
2009,06,18,07,07,14.00
2009,06,18,07,08,14.10
2009,06,18,07,09,14.10
2009,06,18,07,10,14.20
2009,06,18,07,11,14.20
2009,06,18,07,12,14.30
2009,06,18,07,13,14.40
2009,06,18,07,14,14.40
2009,06,18,07,15,14.40
2009,06,18,07,16,14.40
2009,06,18,07,17,14.50
2009,06,18,07,18,14.60
2009,06,18,07,19,14.60
2009,06,18,07,20,14.60
2009,06,18,07,21,14.60
2009,06,18,07,22,14.70
2009,06,18,07,23,14.70
2009,06,18,07,24,14.80
2009,06,18,07,25,14.80
2009,06,18,07,26,14.80
2009,06,18,07,27,14.80
2009,06,18,07,28,14.80
2009,06,18,07,29,14.80
2009,06,18,07,30,14.80
2009,06,18,07,31,14.80
2009,06,18,07,32,14.80
2009,06,18,07,33,14.80
2009,06,18,07,34,14.70
2009,06,18,07,35,14.70
2009,06,18,07,36,14.60
2009,06,18,07,37,14.60
2009,06,18,07,38,14.60
2009,06,18,07,39,14.60
2009,06,18,07,40,14.60
2009,06,18,07,41,14.60
2009,06,18,07,42,14.60
2009,06,18,07,43,14.60
2009,06,18,07,44,14.60
2009,06,18,07,45,14.60
2009,06,18,07,46,14.60
2009,06,18,07,47,14.60
2009,06,18,07,48,14.70
2009,06,18,07,49,14.70
2009,06,18,07,50,14.70
2009,06,18,07,51,14.70
2009,06,18,07,52,14.80
2009,06,18,07,53,14.80
2009,06,18,07,54,14.80
2009,06,18,07,55,14.80
2009,06,18,07,56,14.90
2009,06,18,07,57,14.90
2009,06,18,07,58,14.90
2009,06,18,07,59,15.00
2009,06,18,08,00,15.00
2009,06,18,08,01,15.00
2009,06,18,08,02,15.10
2009,06,18,08,03,15.10
2009,06,18,08,04,15.00
2009,06,18,08,05,15.00
2009,06,18,08,06,15.10
2009,06,18,08,07,15.10
2009,06,18,08,08,15.10
2009,06,18,08,09,15.10
2009,06,18,08,10,15.00
2009,06,18,08,11,15.00
2009,06,18,08,12,15.10
2009,06,18,08,13,15.10
2009,06,18,08,14,15.10
2009,06,18,08,15,15.20
2009,06,18,08,16,15.20
2009,06,18,08,17,15.30
2009,06,18,08,18,15.30
2009,06,18,08,19,15.30
2009,06,18,08,20,15.30
2009,06,18,08,21,15.30
2009,06,18,08,22,15.30
2009,06,18,08,23,15.30
2009,06,18,08,24,15.30
2009,06,18,08,25,15.40
2009,06,18,08,26,15.40
2009,06,18,08,27,15.50
2009,06,18,08,28,15.60
2009,06,18,08,29,15.70
2009,06,18,08,30,15.80
2009,06,18,08,31,15.90
2009,06,18,08,32,16.00
2009,06,18,08,33,16.10
2009,06,18,08,34,16.20
2009,06,18,08,35,16.30
2009,06,18,08,36,16.40
2009,06,18,08,37,16.40
2009,06,18,08,38,16.40
2009,06,18,08,39,16.60
2009,06,18,08,40,16.60
2009,06,18,08,41,16.60
2009,06,18,08,42,16.60
2009,06,18,08,43,16.70
2009,06,18,08,44,16.70
2009,06,18,08,45,16.70
2009,06,18,08,46,16.70
2009,06,18,08,47,16.80
2009,06,18,08,48,16.80
2009,06,18,08,49,16.80
2009,06,18,08,50,16.80
2009,06,18,08,51,16.80
2009,06,18,08,52,16.80
2009,06,18,08,53,16.80
2009,06,18,08,54,16.90
2009,06,18,08,55,16.80
2009,06,18,08,56,16.80
2009,06,18,08,57,16.70
2009,06,18,08,58,16.70
2009,06,18,08,59,16.70
2009,06,18,09,00,16.70
2009,06,18,09,01,16.70
2009,06,18,09,02,16.60
2009,06,18,09,03,16.60
2009,06,18,09,04,16.40
2009,06,18,09,05,16.40
2009,06,18,09,06,16.40
2009,06,18,09,07,16.40
2009,06,18,09,08,16.40
2009,06,18,09,09,16.30
2009,06,18,09,10,16.30
2009,06,18,09,11,16.20
2009,06,18,09,12,16.20
2009,06,18,09,13,16.20
2009,06,18,09,14,16.10
2009,06,18,09,15,16.10
2009,06,18,09,16,16.10
2009,06,18,09,17,16.20
2009,06,18,09,18,16.20
2009,06,18,09,19,16.20
2009,06,18,09,20,16.20
2009,06,18,09,21,16.30
2009,06,18,09,22,16.30
2009,06,18,09,23,16.40
2009,06,18,09,24,16.40
2009,06,18,09,25,16.50
2009,06,18,09,26,16.70
2009,06,18,09,27,16.70
2009,06,18,09,28,16.90
2009,06,18,09,29,17.00
2009,06,18,09,30,17.00
2009,06,18,09,31,17.10
2009,06,18,09,32,17.20
2009,06,18,09,33,17.40
2009,06,18,09,34,17.50
2009,06,18,09,35,17.60
2009,06,18,09,36,17.70
2009,06,18,09,37,17.80
2009,06,18,09,38,17.90
2009,06,18,09,39,18.00
2009,06,18,09,40,18.10
2009,06,18,09,41,18.20
2009,06,18,09,42,18.20
2009,06,18,09,43,18.20
2009,06,18,09,44,18.30
2009,06,18,09,45,18.30
2009,06,18,09,46,18.40
2009,06,18,09,47,18.50
2009,06,18,09,48,18.50
2009,06,18,09,49,18.60
2009,06,18,09,50,18.60
2009,06,18,09,51,18.70
2009,06,18,09,52,18.70
2009,06,18,09,53,18.70
2009,06,18,09,54,18.60
2009,06,18,09,55,18.60
2009,06,18,09,56,18.60
2009,06,18,09,57,18.50
2009,06,18,09,58,18.50
2009,06,18,09,59,18.50
2009,06,18,10,00,18.50
2009,06,18,10,01,18.40
2009,06,18,10,02,18.50
2009,06,18,10,03,18.60
2009,06,18,10,04,18.60
2009,06,18,10,05,18.70
2009,06,18,10,06,18.80
2009,06,18,10,07,18.80
2009,06,18,10,08,18.90
2009,06,18,10,09,18.80
2009,06,18,10,10,18.50
2009,06,18,10,11,18.10
2009,06,18,10,12,17.90
2009,06,18,10,13,17.90
2009,06,18,10,14,17.90
2009,06,18,10,15,17.90
2009,06,18,10,16,17.90
2009,06,18,10,17,18.00
2009,06,18,10,18,18.10
2009,06,18,10,19,18.20
2009,06,18,10,20,18.30
2009,06,18,10,21,18.50
2009,06,18,10,22,18.60
2009,06,18,10,23,18.70
2009,06,18,10,24,18.90
2009,06,18,10,25,19.00
2009,06,18,10,26,19.10
2009,06,18,10,27,19.10
2009,06,18,10,28,19.10
2009,06,18,10,29,19.10
2009,06,18,10,30,19.20
2009,06,18,10,31,19.20
2009,06,18,10,32,19.30
2009,06,18,10,33,19.30
2009,06,18,10,34,19.20
2009,06,18,10,35,19.20
2009,06,18,10,36,19.30
2009,06,18,10,37,19.30
2009,06,18,10,38,19.30
2009,06,18,10,39,19.30
2009,06,18,10,40,19.40
2009,06,18,10,41,19.50
2009,06,18,10,42,19.70
2009,06,18,10,43,19.80
2009,06,18,10,44,19.90
2009,06,18,10,45,19.90
2009,06,18,10,46,19.90
2009,06,18,10,47,19.90
2009,06,18,10,48,19.90
2009,06,18,10,49,19.90
2009,06,18,10,50,19.90
2009,06,18,10,51,19.90
2009,06,18,10,52,20.00
2009,06,18,10,53,20.10
2009,06,18,10,54,20.20
2009,06,18,10,55,20.20
2009,06,18,10,56,20.20
2009,06,18,10,57,20.30
2009,06,18,10,58,20.30
2009,06,18,10,59,20.40
2009,06,18,11,00,20.40
2009,06,18,11,01,20.50
2009,06,18,11,02,20.50
2009,06,18,11,03,20.60
2009,06,18,11,04,20.70
2009,06,18,11,05,20.80
2009,06,18,11,06,20.80
2009,06,18,11,07,20.80
2009,06,18,11,08,20.80
2009,06,18,11,09,20.60
2009,06,18,11,10,20.40
2009,06,18,11,11,20.10
2009,06,18,11,12,19.80
2009,06,18,11,13,19.40
2009,06,18,11,14,19.10
2009,06,18,11,15,18.90
2009,06,18,11,16,18.70
2009,06,18,11,17,18.60
2009,06,18,11,18,18.50
2009,06,18,11,19,18.50
2009,06,18,11,20,18.40
2009,06,18,11,21,18.40
2009,06,18,11,22,18.50
2009,06,18,11,23,18.60
2009,06,18,11,24,18.70
2009,06,18,11,25,18.70
2009,06,18,11,26,18.80
2009,06,18,11,27,18.90
2009,06,18,11,28,19.00
2009,06,18,11,29,19.20
2009,06,18,11,30,19.50
2009,06,18,11,31,19.70
2009,06,18,11,32,19.80
2009,06,18,11,33,19.90
2009,06,18,11,34,20.00
2009,06,18,11,35,20.10
2009,06,18,11,36,20.20
2009,06,18,11,37,20.20
2009,06,18,11,38,20.20
2009,06,18,11,39,20.20
2009,06,18,11,40,20.30
2009,06,18,11,41,20.30
2009,06,18,11,42,20.30
2009,06,18,11,43,20.30
2009,06,18,11,44,20.40
2009,06,18,11,45,20.40
2009,06,18,11,46,20.50
2009,06,18,11,47,20.50
2009,06,18,11,48,20.40
2009,06,18,11,49,20.40
2009,06,18,11,50,20.30
2009,06,18,11,51,20.30
2009,06,18,11,52,20.20
2009,06,18,11,53,20.10
2009,06,18,11,54,19.90
2009,06,18,11,55,19.80
2009,06,18,11,56,19.70
2009,06,18,11,57,19.70
2009,06,18,11,58,19.60
2009,06,18,11,59,19.50
2009,06,18,12,00,19.50
2009,06,18,12,01,19.30
2009,06,18,12,02,19.40
2009,06,18,12,03,19.50
2009,06,18,12,04,19.60
2009,06,18,12,05,19.60
2009,06,18,12,06,19.50
2009,06,18,12,07,19.40
2009,06,18,12,08,19.50
2009,06,18,12,09,19.60
2009,06,18,12,10,19.60
2009,06,18,12,11,19.70
2009,06,18,12,12,19.60
2009,06,18,12,13,19.50
2009,06,18,12,14,19.40
2009,06,18,12,15,19.40
2009,06,18,12,16,19.30
2009,06,18,12,17,19.30
2009,06,18,12,18,19.30
2009,06,18,12,19,19.30
2009,06,18,12,20,19.30
2009,06,18,12,21,19.20
2009,06,18,12,22,19.10
2009,06,18,12,23,19.10
2009,06,18,12,24,19.10
2009,06,18,12,25,19.10
2009,06,18,12,26,19.10
2009,06,18,12,27,19.00
2009,06,18,12,28,18.90
2009,06,18,12,29,18.80
2009,06,18,12,30,18.80
2009,06,18,12,31,18.70
2009,06,18,12,32,18.50
2009,06,18,12,33,18.40
2009,06,18,12,34,18.30
2009,06,18,12,35,18.20
2009,06,18,12,36,18.10
2009,06,18,12,37,17.90
2009,06,18,12,38,17.80
2009,06,18,12,39,17.70
2009,06,18,12,40,17.60
2009,06,18,12,41,17.50
2009,06,18,12,42,17.40
2009,06,18,12,43,17.30
2009,06,18,12,44,17.40
2009,06,18,12,45,17.40
2009,06,18,12,46,17.40
2009,06,18,12,47,17.40
2009,06,18,12,48,17.50
2009,06,18,12,49,17.60
2009,06,18,12,50,17.70
2009,06,18,12,51,17.80
2009,06,18,12,52,17.90
2009,06,18,12,53,18.00
2009,06,18,12,54,18.20
2009,06,18,12,55,18.30
2009,06,18,12,56,18.40
2009,06,18,12,57,18.40
2009,06,18,12,58,18.50
2009,06,18,12,59,18.60
2009,06,18,13,00,18.70
2009,06,18,13,01,18.80
2009,06,18,13,02,18.80
2009,06,18,13,03,18.80
2009,06,18,13,04,18.80
2009,06,18,13,05,18.80
2009,06,18,13,06,18.90
2009,06,18,13,07,18.90
2009,06,18,13,08,19.10
2009,06,18,13,09,19.20
2009,06,18,13,10,19.40
2009,06,18,13,11,19.50
2009,06,18,13,12,19.50
2009,06,18,13,13,19.60
2009,06,18,13,14,19.60
2009,06,18,13,15,19.80
2009,06,18,13,16,19.90
2009,06,18,13,17,19.90
2009,06,18,13,18,20.00
2009,06,18,13,19,20.10
2009,06,18,13,20,20.20
2009,06,18,13,21,20.40
2009,06,18,13,22,20.50
2009,06,18,13,23,20.50
2009,06,18,13,24,20.40
2009,06,18,13,25,20.20
2009,06,18,13,26,20.10
2009,06,18,13,27,19.90
2009,06,18,13,28,19.90
2009,06,18,13,29,19.90
2009,06,18,13,30,19.90
2009,06,18,13,31,19.90
2009,06,18,13,32,19.90
2009,06,18,13,33,19.90
2009,06,18,13,34,19.90
2009,06,18,13,35,19.90
2009,06,18,13,36,19.90
2009,06,18,13,37,19.90
2009,06,18,13,38,19.90
2009,06,18,13,39,19.80
2009,06,18,13,40,19.90
2009,06,18,13,41,19.90
2009,06,18,13,42,20.00
2009,06,18,13,43,20.10
2009,06,18,13,44,20.20
2009,06,18,13,45,20.30
2009,06,18,13,46,20.50
2009,06,18,13,47,20.50
2009,06,18,13,48,20.50
2009,06,18,13,49,20.70
2009,06,18,13,50,20.80
2009,06,18,13,51,20.80
2009,06,18,13,52,20.80
2009,06,18,13,53,20.80
2009,06,18,13,54,20.70
2009,06,18,13,55,20.70
2009,06,18,13,56,20.80
2009,06,18,13,57,20.80
2009,06,18,13,58,20.80
2009,06,18,13,59,20.80
2009,06,18,14,00,20.80
2009,06,18,14,01,20.70
2009,06,18,14,02,20.50
2009,06,18,14,03,20.30
2009,06,18,14,04,20.20
2009,06,18,14,05,20.20
2009,06,18,14,06,20.10
2009,06,18,14,07,19.90
2009,06,18,14,08,19.70
2009,06,18,14,09,19.50
2009,06,18,14,10,19.40
2009,06,18,14,11,19.40
2009,06,18,14,12,19.30
2009,06,18,14,13,19.20
2009,06,18,14,14,19.20
2009,06,18,14,15,19.20
2009,06,18,14,16,19.30
2009,06,18,14,17,19.20
2009,06,18,14,18,19.20
2009,06,18,14,19,19.30
2009,06,18,14,20,19.30
2009,06,18,14,21,19.20
2009,06,18,14,22,19.10
2009,06,18,14,23,19.10
2009,06,18,14,24,19.10
2009,06,18,14,25,18.90
2009,06,18,14,26,18.90
2009,06,18,14,27,18.90
2009,06,18,14,28,18.90
2009,06,18,14,29,18.90
2009,06,18,14,30,18.90
2009,06,18,14,31,18.90
2009,06,18,14,32,19.00
2009,06,18,14,33,19.10
2009,06,18,14,34,19.20
2009,06,18,14,35,19.30
2009,06,18,14,36,19.30
2009,06,18,14,37,19.30
2009,06,18,14,38,19.20
2009,06,18,14,39,19.20
2009,06,18,14,40,19.20
2009,06,18,14,41,19.30
2009,06,18,14,42,19.30
2009,06,18,14,43,19.30
2009,06,18,14,44,19.30
2009,06,18,14,45,19.40
2009,06,18,14,46,19.40
2009,06,18,14,47,19.40
2009,06,18,14,48,19.40
2009,06,18,14,49,19.30
2009,06,18,14,50,19.30
2009,06,18,14,51,19.30
2009,06,18,14,52,19.30
2009,06,18,14,53,19.40
2009,06,18,14,54,19.40
2009,06,18,14,55,19.40
2009,06,18,14,56,19.50
2009,06,18,14,57,19.50
2009,06,18,14,58,19.50
2009,06,18,14,59,19.60
2009,06,18,15,00,19.70
2009,06,18,15,01,19.80
2009,06,18,15,02,19.90
2009,06,18,15,03,19.90
2009,06,18,15,04,19.80
2009,06,18,15,05,19.80
2009,06,18,15,06,19.90
2009,06,18,15,07,19.90
2009,06,18,15,08,19.90
2009,06,18,15,09,19.90
2009,06,18,15,10,19.90
2009,06,18,15,11,19.80
2009,06,18,15,12,19.80
2009,06,18,15,13,19.80
2009,06,18,15,14,19.80
2009,06,18,15,15,19.80
2009,06,18,15,16,19.70
2009,06,18,15,17,19.60
2009,06,18,15,18,19.60
2009,06,18,15,19,19.60
2009,06,18,15,20,19.70
2009,06,18,15,21,19.80
2009,06,18,15,22,19.90
2009,06,18,15,23,20.10
2009,06,18,15,24,20.20
2009,06,18,15,25,20.50
2009,06,18,15,26,20.70
2009,06,18,15,27,20.90
2009,06,18,15,28,21.00
2009,06,18,15,29,21.10
2009,06,18,15,30,21.20
2009,06,18,15,31,21.20
2009,06,18,15,32,21.30
2009,06,18,15,33,21.30
2009,06,18,15,34,21.40
2009,06,18,15,35,21.50
2009,06,18,15,36,21.50
2009,06,18,15,37,21.40
2009,06,18,15,38,21.40
2009,06,18,15,39,21.50
2009,06,18,15,40,21.60
2009,06,18,15,41,21.60
2009,06,18,15,42,21.60
2009,06,18,15,43,21.60
2009,06,18,15,44,21.60
2009,06,18,15,45,21.60
2009,06,18,15,46,21.60
2009,06,18,15,47,21.60
2009,06,18,15,48,21.60
2009,06,18,15,49,21.60
2009,06,18,15,50,21.60
2009,06,18,15,51,21.60
2009,06,18,15,52,21.50
2009,06,18,15,53,21.10
2009,06,18,15,54,20.90
2009,06,18,15,55,20.50
2009,06,18,15,56,20.10
2009,06,18,15,57,19.70
2009,06,18,15,58,19.60
2009,06,18,15,59,19.60
2009,06,18,16,00,19.40
2009,06,18,16,01,19.30
2009,06,18,16,02,19.20
2009,06,18,16,03,19.20
2009,06,18,16,04,19.30
2009,06,18,16,05,19.40
2009,06,18,16,06,19.50
2009,06,18,16,07,19.60
2009,06,18,16,08,19.70
2009,06,18,16,09,19.70
2009,06,18,16,10,19.70
2009,06,18,16,11,19.70
2009,06,18,16,12,19.70
2009,06,18,16,13,19.80
2009,06,18,16,14,19.70
2009,06,18,16,15,19.70
2009,06,18,16,16,19.70
2009,06,18,16,17,19.60
2009,06,18,16,18,19.40
2009,06,18,16,19,19.30
2009,06,18,16,20,19.10
2009,06,18,16,21,18.90
2009,06,18,16,22,18.70
2009,06,18,16,23,18.60
2009,06,18,16,24,18.50
2009,06,18,16,25,18.30
2009,06,18,16,26,18.20
2009,06,18,16,27,18.00
2009,06,18,16,28,17.90
2009,06,18,16,29,17.90
2009,06,18,16,30,18.00
2009,06,18,16,31,18.10
2009,06,18,16,32,18.20
2009,06,18,16,33,18.30
2009,06,18,16,34,18.40
2009,06,18,16,35,18.50
2009,06,18,16,36,18.50
2009,06,18,16,37,18.50
2009,06,18,16,38,18.40
2009,06,18,16,39,18.40
2009,06,18,16,40,18.30
2009,06,18,16,41,18.30
2009,06,18,16,42,18.30
2009,06,18,16,43,18.30
2009,06,18,16,44,18.20
2009,06,18,16,45,18.20
2009,06,18,16,46,18.20
2009,06,18,16,47,18.20
2009,06,18,16,48,18.20
2009,06,18,16,49,18.30
2009,06,18,16,50,18.30
2009,06,18,16,51,18.30
2009,06,18,16,52,18.30
2009,06,18,16,53,18.30
2009,06,18,16,54,18.30
2009,06,18,16,55,18.30
2009,06,18,16,56,18.20
2009,06,18,16,57,18.20
2009,06,18,16,58,18.20
2009,06,18,16,59,18.10
2009,06,18,17,00,17.90
2009,06,18,17,01,17.90
2009,06,18,17,02,17.90
2009,06,18,17,03,17.90
2009,06,18,17,04,17.90
2009,06,18,17,05,17.90
2009,06,18,17,06,18.00
2009,06,18,17,07,18.10
2009,06,18,17,08,18.20
2009,06,18,17,09,18.30
2009,06,18,17,10,18.40
2009,06,18,17,11,18.50
2009,06,18,17,12,18.50
2009,06,18,17,13,18.50
2009,06,18,17,14,18.50
2009,06,18,17,15,18.40
2009,06,18,17,16,18.40
2009,06,18,17,17,18.30
2009,06,18,17,18,18.30
2009,06,18,17,19,18.30